CAPE
2390 1888 1764 1335 1345 1463 1434 1601 1322 1167 1488 1169 922 646 862 703 688 820 1107 1038 1191 1126 923 721 532 349 319 213 96 54 228 143
1955 2092 1921 2099 2000 1207 1284 1110 996 972 920 532 353 351 335 260 221 429 554 972 1019 906 710 507 342 291 234 127 63 14 152 103
2283 2197 1936 2033 2196 1979 1270 1077 818 623 512 348 445 615 294 383 280 424 486 567 633 576 465 337 285 223 157 63 8 86 59 48
2341 1946 2279 1977 1931 2145 1991 1710 1243 1051 1047 881 1006 507 379 494 279 339 286 243 341 266 320 272 250 212 110 12 117 66 38 29
2142 2325 2209 2126 1877 1756 2042 1636 1394 1371 1173 842 859 555 328 78 151 396 296 195 298 246 282 386 335 250 172 146 78 65 35 24
1913 1717 1674 1724 1818 1530 1559 1605 1524 1481 1240 938 518 442 234 145 124 207 144 244 183 471 685 423 331 182 183 98 52 25 25 16
1853 1535 1258 1343 1478 1181 1372 1438 998 1068 1194 1102 574 382 424 328 334 233 98 137 117 590 350 291 250 225 173 100 23 19 14 6
1884 1540 1325 1369 1147 756 1137 1161 917 731 722 966 888 534 333 184 146 243 109 49 89 345 246 286 237 209 177 69 22 6 6 10
1812 1331 1052 1132 1132 570 900 573 810 691 542 568 325 246 319 125 105 158 90 44 71 234 244 201 181 165 136 67 7 3 3 9
1556 1022 1210 1211 730 611 626 778 640 397 255 273 179 189 258 200 115 78 45 51 57 185 172 161 154 162 124 37 16 12 3 10
1560 1141 1025 848 495 323 336 392 97 163 182 145 155 199 188 217 135 117 28 40 50 145 173 192 150 153 120 59 48 27 9 1
1470 840 851 652 440 151 317 151 56 57 119 121 35 70 91 75 161 28 33 26 6 125 194 173 180 165 54 76 76 53 32 21
1396 810 710 492 293 170 178 210 81 21 59 46 91 45 27 96 48 43 15 17 20 43 172 175 150 150 46 70 54 23 33 17
1278 926 512 392 264 210 179 19 50 107 75 49 85 185 90 3 40 12 34 15 23 97 169 154 148 134 96 81 35 40 27 27
1187 931 849 518 441 184 317 38 44 52 41 22 53 221 30 27 32 50 21 12 7 75 150 166 110 124 124 48 57 40 29 35
1165 1009 576 645 441 207 158 28 4 43 20 2 32 20 35 26 29 35 14 24 33 54 90 163 147 112 119 66 74 43 44 79
1210 981 514 519 290 133 116 31 38 54 17 0 10 7 8 14 5 47 11 12 90 161 118 138 117 109 85 123 123 109 118 77
975 719 341 392 305 150 62 12 43 111 26 30 34 18 11 17 39 38 22 9 51 76 26 38 80 81 73 72 104 107 108 108
395 560 194 149 179 81 70 66 66 31 64 15 53 6 24 14 23 10 33 43 38 48 22 20 32 64 116 121 131 143 122 105
178 313 132 118 80 51 69 39 11 16 49 91 78 32 43 49 23 10 8 11 9 7 0 1 2 25 91 128 150 134 132 122
CIN
-83 -122 -99 -125 -82 -28 -7 -5 -24 -41 -17 -16 -10 -12 -6 -16 -23 -22 -19 -7 -1 0 0 -5 -20 -16 -15 -17 -10 -20 -7 -14
-123 -70 -58 -31 -6 -35 -8 -15 -22 -39 -18 -17 -49 -45 -15 0 -7 -36 -22 -14 -0 -1 -0 -4 -14 -7 -19 -8 -20 -52 -4 -24
-78 -62 -45 -32 0 -1 -5 -9 -26 -25 -19 -27 -18 -12 -21 0 -7 -15 -14 -21 -18 -9 -2 -6 -13 -1 -4 -24 -91 -24 -42 -43
-58 -87 -15 -32 -2 0 0 0 0 0 0 -3 -1 -22 -12 0 -28 -28 -33 -20 -30 -32 -17 -16 -3 -0 -8 -84 -30 -52 -0 0
-59 -26 -23 -18 -13 -1 0 0 0 0 0 -0 0 -3 -6 -33 -44 -8 -15 -16 -2 -8 -17 -1 -1 -0 0 -4 -37 -37 0 0
-91 -99 -88 -52 -23 -9 -0 0 0 0 0 0 -10 -2 -14 -20 -24 -4 -9 -0 -0 -1 0 0 -0 -0 0 -2 -24 0 0 0
-105 -133 -149 -89 -57 -40 -0 -1 -4 -1 0 0 -0 -5 0 -8 0 -0 -16 -0 -13 -1 0 0 0 0 0 -3 0 0 0 0
-96 -130 -111 -70 -83 -95 -13 0 -2 -4 -7 -0 0 -0 -2 -17 -15 0 0 -12 -15 -0 0 0 0 0 0 0 0 0 0 0
-120 -177 -146 -76 -66 -121 -38 -44 0 0 -1 -1 -8 -3 -6 -16 -19 -0 -1 -9 -15 -4 0 0 0 0 0 0 0 0 0 0
-156 -237 -127 -62 -116 -86 -60 -11 -1 -3 -2 -5 -12 -5 0 0 -2 -1 -5 -2 -4 -0 0 0 0 0 0 0 0 0 0 0
-157 -207 -144 -114 -141 -115 -82 -35 -77 -46 -21 -17 -3 -1 -0 0 -2 -0 -10 0 -0 -0 0 0 0 0 0 -1 -12 0 0 0
-164 -261 -179 -134 -120 -153 -68 -70 -101 -59 -14 -2 -23 -0 -0 -1 0 -8 -3 0 0 -2 0 0 0 0 -2 -12 -2 0 0 0
-176 -251 -196 -164 -161 -141 -94 -45 -79 -123 -37 -18 -6 0 -1 -0 0 -7 0 -1 -2 -1 0 0 0 0 0 0 0 0 0 0
-190 -211 -221 -183 -162 -140 -111 -109 -112 -57 -25 -27 -4 0 -0 -6 -2 -0 0 0 0 0 0 0 -0 0 0 -2 0 0 0 0
-195 -190 -146 -159 -120 -163 -85 -52 -69 -28 -39 -18 -6 0 -6 0 0 0 0 0 0 -0 0 0 0 0 0 -8 0 0 0 0
-165 -146 -174 -134 -124 -160 -123 -118 -18 -73 -26 0 -5 -28 -10 0 -3 0 -0 0 0 -0 0 0 0 0 0 -0 -0 0 0 -1
-161 -140 -181 -150 -161 -176 -137 -172 -125 -103 -32 0 -18 -6 -1 -2 0 0 0 0 0 0 0 0 0 0 0 0 0 0 0 0
-198 -191 -220 -172 -161 -172 -175 -76 -118 -77 -29 0 -25 -3 -3 -2 0 0 -1 -9 -1 -2 -5 -7 0 0 -1 -5 0 0 0 0
-343 -227 -270 -253 -188 -206 -166 -126 -136 -158 -115 0 -13 0 0 -2 -1 -1 -3 -0 -2 -4 -29 -22 -8 0 0 0 0 0 0 -0
-395 -277 -150 -72 -215 -188 -166 -170 0 -166 -143 -74 -45 0 0 0 0 0 0 -2 -1 -7 -9 -9 -1 -19 -1 -0 0 -5 -3 -0
Wind_Speed
37 39 45 42 35 36 26 29 28 29 25 28 28 21 23 31 33 24 17 19 28 31 28 29 30 29 31 30 nan nan 21 22
39 39 37 38 35 33 28 26 27 26 22 27 33 29 23 37 31 19 14 19 27 33 30 32 35 32 32 31 nan nan 25 25
42 40 33 34 32 33 28 23 26 30 29 35 33 26 26 31 27 17 38 27 22 29 34 37 37 36 33 nan nan nan nan nan
41 37 32 34 29 30 24 22 19 18 22 27 27 25 24 27 25 32 31 31 32 26 29 34 28 31 30 nan 17 nan nan nan
33 31 32 33 30 29 24 20 22 17 21 25 25 24 25 nan 28 34 34 25 33 30 19 19 23 29 30 23 nan nan nan nan
33 30 35 34 32 27 23 21 23 20 21 28 28 25 25 27 26 25 32 27 27 25 17 17 21 24 26 nan nan nan nan nan
37 35 35 34 33 28 24 24 25 20 21 28 30 25 23 26 26 26 nan 17 17 25 18 17 14 28 25 27 nan nan nan nan
35 36 33 34 30 29 25 28 24 24 23 25 21 19 25 27 25 25 23 nan nan 22 21 15 13 21 27 nan nan nan nan nan
32 37 34 31 29 28 28 30 25 25 24 25 24 24 26 28 25 28 nan nan nan 25 21 16 17 17 24 nan nan nan nan nan
34 41 34 29 31 28 29 29 25 22 23 22 24 24 29 26 24 nan nan nan nan 33 27 19 20 20 24 nan nan nan nan nan
36 39 31 29 31 25 27 24 nan 22 23 24 22 20 21 21 19 25 nan nan nan 36 30 24 23 23 28 nan nan nan nan nan
37 35 31 31 26 22 22 19 nan nan 24 24 nan nan nan nan 24 nan nan nan nan 39 34 31 30 26 nan nan nan nan nan nan
35 32 30 32 22 21 19 18 nan nan nan nan nan nan nan nan nan nan nan nan nan nan 34 35 28 27 nan nan nan nan nan nan
32 32 31 27 20 18 16 nan nan 15 nan nan nan 11 nan nan nan nan nan nan nan nan 30 32 27 26 nan nan nan nan nan nan
29 29 31 22 18 16 16 nan nan nan nan nan nan 5 nan nan nan nan nan nan nan nan 27 15 20 15 10 nan nan nan nan nan
27 26 28 20 19 16 16 nan nan nan nan nan nan nan nan nan nan nan nan nan nan nan nan 16 14 10 10 nan nan nan nan nan
27 26 23 22 19 15 13 nan nan nan nan nan nan nan nan nan nan nan nan nan nan 20 15 13 17 16 nan 14 15 21 21 nan
23 26 24 22 19 16 nan nan nan 9 nan nan nan nan nan nan nan nan nan nan nan nan nan nan nan nan nan nan 19 24 25 25
21 24 25 22 18 nan nan nan nan nan nan nan nan nan nan nan nan nan nan nan nan nan nan nan nan nan 19 22 21 21 24 24
19 24 25 22 nan nan nan nan nan nan nan nan nan nan nan nan nan nan nan nan nan nan nan nan nan nan nan 19 23 25 24 25
Wind_Direction
299 295 303 302 297 292 289 288 299 301 310 300 307 280 290 293 296 265 259 263 275 262 241 244 241 239 233 238 nan nan 235 236
295 298 305 301 294 288 285 282 291 290 290 284 299 301 290 263 239 268 291 273 272 266 244 238 237 234 232 236 nan nan 233 236
298 294 306 292 291 289 279 285 285 281 282 287 291 293 286 280 280 270 281 263 270 264 254 243 236 231 231 nan nan nan nan nan
292 302 303 296 284 284 287 285 286 297 290 295 294 292 286 292 277 287 269 267 264 264 257 255 251 228 225 nan 215 nan nan nan
303 303 301 296 279 276 268 267 275 287 302 299 292 284 283 nan 268 269 247 262 249 240 249 254 249 231 229 227 nan nan nan nan
305 302 298 292 279 273 260 257 269 280 295 303 294 284 284 280 270 265 232 241 241 229 236 251 242 232 227 nan nan nan nan nan
294 292 291 293 279 264 255 263 266 275 284 300 299 292 288 275 266 258 nan 221 228 226 239 236 251 230 224 229 nan nan nan nan
295 292 290 292 277 265 254 258 268 275 280 289 300 295 286 277 266 252 220 nan nan 215 234 239 246 230 223 nan nan nan nan nan
297 296 291 291 280 267 256 252 260 274 282 296 290 295 288 273 259 237 nan nan nan 214 235 253 248 231 233 nan nan nan nan nan
297 295 294 286 276 269 261 258 266 275 281 289 291 293 291 273 254 nan nan nan nan 213 233 255 249 237 233 nan nan nan nan nan
295 292 297 289 279 275 265 268 nan 278 280 280 293 298 290 267 243 243 nan nan nan 217 231 245 251 244 244 nan nan nan nan nan
294 291 302 289 285 268 259 270 nan nan 282 280 nan nan nan nan 233 nan nan nan nan 218 233 250 253 252 nan nan nan nan nan nan
299 296 309 287 277 262 261 274 nan nan nan nan nan nan nan nan nan nan nan nan nan nan 234 249 252 264 nan nan nan nan nan nan
297 305 310 291 268 261 266 nan nan 298 nan nan nan 273 nan nan nan nan nan nan nan nan 239 247 264 272 nan nan nan nan nan nan
300 305 304 282 274 272 282 nan nan nan nan nan nan 282 nan nan nan nan nan nan nan nan 242 272 264 261 273 nan nan nan nan nan
294 303 294 279 277 285 307 nan nan nan nan nan nan nan nan nan nan nan nan nan nan nan nan 236 254 262 235 nan nan nan nan nan
285 297 290 275 279 288 298 nan nan nan nan nan nan nan nan nan nan nan nan nan nan 243 245 240 250 262 nan 269 263 266 274 nan
284 297 284 272 279 294 nan nan nan 344 nan nan nan nan nan nan nan nan nan nan nan nan nan nan nan nan nan nan 277 275 267 262
280 292 283 275 279 nan nan nan nan nan nan nan nan nan nan nan nan nan nan nan nan nan nan nan nan nan 270 280 275 272 259 260
273 286 283 276 nan nan nan nan nan nan nan nan nan nan nan nan nan nan nan nan nan nan nan nan nan nan nan 282 274 271 265 266